Back to Top

Language: 

My Weather Underground Personal Weather Station Historical Data with Graphs...

Delerius Weather Station Historical Data
Daily Summary for May 15, 2017 Units:  Metric    English   Both
« Previous Day
Next Day »
Daily Weekly Monthly Yearly Custom
  High: Low: Average:
Temperature: 16.1 °C 7.8 °C 12.7 °C
Dew Point: 14.6 °C 5.8 °C 10.9 °C
Humidity: 94 % 80 % 89 %
Wind Speed: 22.5 km/h 0 km/h 11.6 km/h
Wind Gust: 48.3 km/h - -
Wind:- - South
Pressure: 1021.6 hPa 1017.2 hPa -
Precipitation: 1.52 mm    
Historical Graphs
 
 
Tabular Data for May 15, 2017
Time Temperature Dew Point Pressure Wind Wind Speed Wind Gust Humidity Rainfall Rate (Hourly) solar Conditions
00:01 8.6 °C 6.2 °C 1021.6 hPa Calm     85 % 0 mm 0 W/m2
00:06 8.6 °C 6.2 °C 1021.6 hPa Calm     85 % 0 mm 0 W/m2
00:11 8.5 °C 6.1 °C 1021.6 hPa Calm     85 % 0 mm 0 W/m2
00:16 8.4 °C 6 °C 1021.6 hPa Calm     85 % 0 mm 0 W/m2
00:21 8.4 °C 6 °C 1021.6 hPa Calm     85 % 0 mm 0 W/m2
00:26 8.4 °C 6 °C 1021.6 hPa Calm     85 % 0 mm 0 W/m2
00:31 8.4 °C 6.2 °C 1021.2 hPa Calm   1.6 km/h 86 % 0 mm 0 W/m2
00:36 8.3 °C 5.9 °C 1021.2 hPa Calm   1.6 km/h 85 % 0 mm 0 W/m2
00:41 8.3 °C 5.9 °C 1021.2 hPa Calm     85 % 0 mm 0 W/m2
00:46 8.3 °C 6.1 °C 1021.2 hPa Calm     86 % 0 mm 0 W/m2
00:51 8.3 °C 6.1 °C 1021.6 hPa Calm     86 % 0 mm 0 W/m2
00:56 8.3 °C 6.1 °C 1021.6 hPa Calm     86 % 0 mm 0 W/m2
01:02 8.2 °C 6 °C 1021.6 hPa Calm     86 % 0 mm 0 W/m2
01:07 8.2 °C 6 °C 1021.6 hPa Calm     86 % 0 mm 0 W/m2
01:12 8.1 °C 5.9 °C 1021.6 hPa Calm     86 % 0 mm 0 W/m2
01:17 8.1 °C 6.1 °C 1021.6 hPa Calm     87 % 0 mm 0 W/m2
01:22 8.1 °C 6.1 °C 1021.6 hPa Calm     87 % 0 mm 0 W/m2
01:27 8.1 °C 6.1 °C 1021.6 hPa Calm     87 % 0 mm 0 W/m2
01:32 8.1 °C 6.1 °C 1021.6 hPa Calm     87 % 0 mm 0 W/m2
01:37 8 °C 5.9 °C 1021.6 hPa Calm     87 % 0 mm 0 W/m2
01:42 7.9 °C 5.9 °C 1021.2 hPa Calm     87 % 0 mm 0 W/m2
01:47 7.9 °C 5.9 °C 1021.2 hPa Calm     87 % 0 mm 0 W/m2
01:52 7.8 °C 5.8 °C 1021.6 hPa Calm     87 % 0 mm 0 W/m2
01:57 7.8 °C 5.9 °C 1021.2 hPa Calm   1.6 km/h 88 % 0 mm 0 W/m2
02:02 7.8 °C 5.9 °C 1021.2 hPa Calm   1.6 km/h 88 % 0 mm 0 W/m2
02:07 7.8 °C 5.9 °C 1021.2 hPa Calm     88 % 0 mm 0 W/m2
02:12 8 °C 6.3 °C 1021.2 hPa Calm   6.4 km/h 89 % 0 mm 0 W/m2
02:17 8.2 °C 6.3 °C 1021.2 hPa Calm   6.4 km/h 88 % 0 mm 0 W/m2
02:22 8.3 °C 6.3 °C 1021.2 hPa Calm   1.6 km/h 87 % 0 mm 0 W/m2
02:27 8.3 °C 6.3 °C 1021.2 hPa Calm   1.6 km/h 87 % 0 mm 0 W/m2
02:32 8.3 °C 6.3 °C 1021.2 hPa Calm   1.6 km/h 87 % 0 mm 0 W/m2
02:37 8.3 °C 6.1 °C 1021.2 hPa Calm   3.2 km/h 86 % 0 mm 0 W/m2
02:42 8.3 °C 6.1 °C 1021.2 hPa Calm   3.2 km/h 86 % 0 mm 0 W/m2
02:47 8.4 °C 6.3 °C 1021.2 hPa SSW 1.6 km/h 11.3 km/h 87 % 0 mm 0 W/m2
02:52 8.6 °C 6.4 °C 1021.2 hPa SSW 1.6 km/h 11.3 km/h 86 % 0 mm 0 W/m2
02:57 8.7 °C 6.5 °C 1021.2 hPa SSW 3.2 km/h 8 km/h 86 % 0 mm 0 W/m2
03:02 8.8 °C 6.6 °C 1021.2 hPa South 4.8 km/h 11.3 km/h 86 % 0 mm 0 W/m2
03:07 9.1 °C 6.7 °C 1021.2 hPa South 6.4 km/h 17.7 km/h 85 % 0 mm 0 W/m2
03:12 9.2 °C 6.6 °C 1021.2 hPa South 6.4 km/h 17.7 km/h 84 % 0 mm 0 W/m2
03:17 9.3 °C 6.6 °C 1021.2 hPa SSE 6.4 km/h 12.9 km/h 83 % 0 mm 0 W/m2
03:23 9.3 °C 6.6 °C 1021.2 hPa SSE 6.4 km/h 12.9 km/h 83 % 0 mm 0 W/m2
03:28 9.4 °C 6.7 °C 1021.2 hPa SSE 6.4 km/h 12.9 km/h 83 % 0 mm 0 W/m2
03:33 9.4 °C 6.5 °C 1021.2 hPa SSE 6.4 km/h 12.9 km/h 82 % 0 mm 0 W/m2
03:35 9.5 °C 6.6 °C 1021.2 hPa SSE 6.4 km/h 14.5 km/h 82 % 0 mm 0 W/m2
03:40 9.5 °C 6.6 °C 1021.2 hPa SSE 8 km/h 16.1 km/h 82 % 0 mm 0 W/m2
03:45 9.6 °C 6.5 °C 1021.2 hPa SSE 8 km/h 16.1 km/h 81 % 0 mm 0 W/m2
03:50 9.6 °C 6.5 °C 1020.9 hPa SE 6.4 km/h 11.3 km/h 81 % 0 mm 0 W/m2
03:56 9.6 °C 6.5 °C 1020.9 hPa SE 6.4 km/h 11.3 km/h 81 % 0 mm 0 W/m2
04:01 9.6 °C 6.5 °C 1020.9 hPa SE 8 km/h 12.9 km/h 81 % 0 mm 0 W/m2
04:06 9.7 °C 6.6 °C 1020.9 hPa SE 9.7 km/h 12.9 km/h 81 % 0 mm 0 W/m2
04:11 9.7 °C 6.6 °C 1020.9 hPa SSE 9.7 km/h 12.9 km/h 81 % 0 mm 0 W/m2
04:16 9.7 °C 6.6 °C 1020.9 hPa SSE 9.7 km/h 14.5 km/h 81 % 0 mm 0 W/m2
04:21 9.6 °C 6.5 °C 1020.5 hPa SE 8 km/h 14.5 km/h 81 % 0 mm 0 W/m2
04:26 9.6 °C 6.5 °C 1020.5 hPa SE 8 km/h 14.5 km/h 81 % 0 mm 0 W/m2
04:31 9.6 °C 6.5 °C 1020.5 hPa SE 8 km/h 14.5 km/h 81 % 0 mm 0 W/m2
04:36 9.6 °C 6.5 °C 1020.5 hPa SE 8 km/h 14.5 km/h 81 % 0 mm 0 W/m2
04:41 9.4 °C 6.5 °C 1020.5 hPa SSE 8 km/h 14.5 km/h 82 % 0 mm 0 W/m2
04:46 9.4 °C 6.5 °C 1020.5 hPa SSE 6.4 km/h 14.5 km/h 82 % 0 mm 0 W/m2
04:51 9.3 °C 6.6 °C 1020.5 hPa SSE 6.4 km/h 14.5 km/h 83 % 0 mm 0 W/m2
04:56 9.3 °C 6.6 °C 1020.5 hPa SSE 8 km/h 14.5 km/h 83 % 0 mm 0 W/m2
05:01 9.2 °C 6.6 °C 1020.5 hPa SSE 6.4 km/h 12.9 km/h 84 % 0 mm 0 W/m2
05:06 9.2 °C 6.6 °C 1020.5 hPa South 6.4 km/h 14.5 km/h 84 % 0 mm 7 W/m2
05:11 9.2 °C 6.6 °C 1020.5 hPa SSE 8 km/h 14.5 km/h 84 % 0 mm 11 W/m2
05:16 9.2 °C 6.8 °C 1020.5 hPa SSE 8 km/h 12.9 km/h 85 % 0 mm 16 W/m2
05:21 9.2 °C 6.8 °C 1020.5 hPa SE 8 km/h 12.9 km/h 85 % 0 mm 19 W/m2
05:26 9.2 °C 6.8 °C 1020.5 hPa SE 6.4 km/h 12.9 km/h 85 % 0 mm 21 W/m2
05:31 9.2 °C 6.8 °C 1020.5 hPa SSE 6.4 km/h 11.3 km/h 85 % 0 mm 21 W/m2
05:36 9.2 °C 7 °C 1020.5 hPa SSE 4.8 km/h 11.3 km/h 86 % 0 mm 19 W/m2
05:41 9.3 °C 7.1 °C 1020.5 hPa SSE 3.2 km/h 11.3 km/h 86 % 0 mm 26 W/m2
05:46 9.3 °C 7.1 °C 1020.5 hPa SE 4.8 km/h 11.3 km/h 86 % 0 mm 21 W/m2
05:51 9.4 °C 7.3 °C 1020.5 hPa SE 4.8 km/h 12.9 km/h 87 % 0 mm 26 W/m2
05:56 9.5 °C 7.4 °C 1020.2 hPa SE 6.4 km/h 12.9 km/h 87 % 0 mm 32 W/m2
06:01 9.6 °C 7.6 °C 1020.5 hPa SE 4.8 km/h 14.5 km/h 87 % 0 mm 37 W/m2
06:06 9.7 °C 7.7 °C 1020.2 hPa SSE 4.8 km/h 14.5 km/h 87 % 0 mm 35 W/m2
06:11 9.8 °C 7.6 °C 1020.2 hPa SSE 6.4 km/h 16.1 km/h 86 % 0 mm 33 W/m2
06:16 9.9 °C 7.5 °C 1020.2 hPa SSE 9.7 km/h 20.9 km/h 85 % 0 mm 26 W/m2
06:21 10.1 °C 7.5 °C 1020.2 hPa South 11.3 km/h 20.9 km/h 84 % 0 mm 32 W/m2
06:25 10.2 °C 7.4 °C 1020.2 hPa South 11.3 km/h 22.5 km/h 83 % 0 mm 39 W/m2
06:30 10.3 °C 7.3 °C 1020.5 hPa South 12.9 km/h 30.6 km/h 82 % 0 mm 30 W/m2
06:35 10.4 °C 7.3 °C 1020.5 hPa South 14.5 km/h 30.6 km/h 81 % 0 mm 32 W/m2
06:40 10.6 °C 7.5 °C 1020.5 hPa South 16.1 km/h 30.6 km/h 81 % 0 mm 40 W/m2
06:45 10.6 °C 7.5 °C 1020.5 hPa South 17.7 km/h 30.6 km/h 81 % 0 mm 44 W/m2
06:51 10.7 °C 7.6 °C 1020.2 hPa South 14.5 km/h 30.6 km/h 81 % 0 mm 67 W/m2
06:56 10.8 °C 7.5 °C 1020.2 hPa South 14.5 km/h 29 km/h 80 % 0 mm 72 W/m2
07:01 10.8 °C 7.5 °C 1020.2 hPa South 14.5 km/h 29 km/h 80 % 0 mm 79 W/m2
07:06 10.9 °C 7.6 °C 1020.2 hPa South 14.5 km/h 29 km/h 80 % 0 mm 84 W/m2
07:11 10.9 °C 7.6 °C 1019.9 hPa South 16.1 km/h 33.8 km/h 80 % 0 mm 67 W/m2
07:16 10.9 °C 7.8 °C 1019.9 hPa South 16.1 km/h 33.8 km/h 81 % 0 mm 91 W/m2
07:21 10.8 °C 7.8 °C 1019.9 hPa SSE 16.1 km/h 25.7 km/h 82 % 0 mm 125 W/m2
07:26 10.8 °C 8 °C 1019.9 hPa South 16.1 km/h 29 km/h 83 % 0 mm 134 W/m2
07:31 10.8 °C 8 °C 1019.9 hPa South 16.1 km/h 29 km/h 83 % 0 mm 116 W/m2
07:36 10.8 °C 8.2 °C 1019.9 hPa SSE 16.1 km/h 29 km/h 84 % 0 mm 141 W/m2
07:41 10.7 °C 8.3 °C 1019.9 hPa SSE 17.7 km/h 32.2 km/h 85 % 0 mm 165 W/m2
07:46 10.8 °C 8.4 °C 1019.9 hPa SSE 16.1 km/h 32.2 km/h 85 % 0 mm 165 W/m2
07:51 10.8 °C 8.4 °C 1019.9 hPa SSE 14.5 km/h 25.7 km/h 85 % 0 mm 156 W/m2
07:56 10.8 °C 8.6 °C 1019.5 hPa SSE 14.5 km/h 24.1 km/h 86 % 0 mm 167 W/m2
08:01 10.8 °C 8.6 °C 1019.9 hPa SSE 16.1 km/h 38.6 km/h 86 % 0 mm 130 W/m2
08:06 10.8 °C 8.6 °C 1019.5 hPa SSE 14.5 km/h 38.6 km/h 86 % 0 mm 128 W/m2
08:11 10.8 °C 8.6 °C 1019.5 hPa South 12.9 km/h 29 km/h 86 % 0 mm 120 W/m2
08:16 10.8 °C 8.7 °C 1019.5 hPa South 12.9 km/h 29 km/h 87 % 0 mm 104 W/m2
08:21 10.8 °C 8.7 °C 1019.9 hPa South 12.9 km/h 25.7 km/h 87 % 0 mm 104 W/m2
08:26 10.8 °C 8.7 °C 1019.5 hPa South 11.3 km/h 25.7 km/h 87 % 0 mm 95 W/m2
08:31 10.8 °C 8.7 °C 1019.5 hPa South 11.3 km/h 22.5 km/h 87 % 0 mm 90 W/m2
08:36 10.8 °C 8.7 °C 1019.5 hPa SSE 12.9 km/h 22.5 km/h 87 % 0 mm 114 W/m2
08:41 10.8 °C 8.7 °C 1019.5 hPa South 14.5 km/h 32.2 km/h 87 % 0 mm 130 W/m2
08:46 10.8 °C 8.9 °C 1019.5 hPa South 14.5 km/h 32.2 km/h 88 % 0 mm 163 W/m2
08:52 10.9 °C 9 °C 1019.5 hPa South 12.9 km/h 29 km/h 88 % 0 mm 163 W/m2
08:53 10.9 °C 9.2 °C 1019.5 hPa South 12.9 km/h 29 km/h 89 % 0 mm 155 W/m2
08:58 11 °C 9.1 °C 1019.5 hPa South 12.9 km/h 30.6 km/h 88 % 0 mm 169 W/m2
09:03 11.1 °C 9.3 °C 1019.5 hPa South 16.1 km/h 30.6 km/h 89 % 0 mm 167 W/m2
09:08 11.1 °C 9.3 °C 1019.5 hPa SSE 16.1 km/h 32.2 km/h 89 % 0 mm 169 W/m2
09:13 11.1 °C 9.3 °C 1019.5 hPa South 16.1 km/h 32.2 km/h 89 % 0 mm 121 W/m2
09:14 11.1 °C 9.3 °C 1019.5 hPa South 16.1 km/h 32.2 km/h 89 % 0 mm 128 W/m2
09:18 11.2 °C 9.6 °C 1019.5 hPa SSE 14.5 km/h 24.1 km/h 90 % 0 mm 130 W/m2
09:23 11.2 °C 9.6 °C 1019.5 hPa SSE 12.9 km/h 24.1 km/h 90 % 0 mm 171 W/m2
09:28 11.2 °C 9.6 °C 1019.5 hPa SSE 11.3 km/h 20.9 km/h 90 % 0.25 mm 178 W/m2
09:33 11.3 °C 9.9 °C 1019.2 hPa SSE 14.5 km/h 22.5 km/h 91 % 0.25 mm 160 W/m2
09:38 11.3 °C 9.9 °C 1019.5 hPa SSE 14.5 km/h 22.5 km/h 91 % 0.25 mm 146 W/m2
09:44 11.3 °C 10.1 °C 1019.5 hPa South 12.9 km/h 22.5 km/h 92 % 0.25 mm 120 W/m2
09:49 11.3 °C 10.1 °C 1019.2 hPa SSE 11.3 km/h 22.5 km/h 92 % 0.51 mm 134 W/m2
09:54 11.4 °C 10.2 °C 1019.2 hPa SSE 8 km/h 17.7 km/h 92 % 0.51 mm 128 W/m2
09:59 11.4 °C 10.2 °C 1019.2 hPa SSE 9.7 km/h 22.5 km/h 92 % 0.51 mm 137 W/m2
10:04 11.5 °C 10.4 °C 1019.2 hPa SSE 9.7 km/h 22.5 km/h 93 % 0.51 mm 123 W/m2
10:09 11.6 °C 10.5 °C 1019.2 hPa SSE 11.3 km/h 20.9 km/h 93 % 0.51 mm 90 W/m2
10:14 11.6 °C 10.5 °C 1019.2 hPa SSE 11.3 km/h 20.9 km/h 93 % 0.51 mm 98 W/m2
10:19 11.6 °C 10.5 °C 1019.2 hPa South 11.3 km/h 20.9 km/h 93 % 0.51 mm 109 W/m2
10:24 11.7 °C 10.6 °C 1019.2 hPa South 11.3 km/h 22.5 km/h 93 % 0.25 mm 121 W/m2
10:29 11.8 °C 10.7 °C 1019.2 hPa South 12.9 km/h 22.5 km/h 93 % 0.25 mm 127 W/m2
10:34 11.8 °C 10.7 °C 1019.2 hPa South 14.5 km/h 32.2 km/h 93 % 0.51 mm 142 W/m2
10:39 11.8 °C 10.7 °C 1019.2 hPa SSE 14.5 km/h 32.2 km/h 93 % 0.51 mm 100 W/m2
10:44 11.9 °C 10.9 °C 1019.2 hPa SSE 12.9 km/h 24.1 km/h 94 % 0.51 mm 107 W/m2
10:50 12 °C 10.9 °C 1019.2 hPa South 12.9 km/h 22.5 km/h 93 % 0.25 mm 137 W/m2
10:55 12.1 °C 11.2 °C 1018.8 hPa South 12.9 km/h 24.1 km/h 94 % 0.25 mm 146 W/m2
11:00 12.2 °C 11.3 °C 1018.8 hPa South 14.5 km/h 29 km/h 94 % 0.25 mm 142 W/m2
11:05 12.3 °C 11.2 °C 1018.8 hPa South 12.9 km/h 29 km/h 93 % 0.25 mm 90 W/m2
11:10 12.3 °C 11.4 °C 1018.8 hPa SSE 11.3 km/h 25.7 km/h 94 % 0.25 mm 83 W/m2
11:15 12.4 °C 11.4 °C 1018.8 hPa SSE 11.3 km/h 22.5 km/h 94 % 0.25 mm 91 W/m2
11:20 12.4 °C 11.4 °C 1018.5 hPa SSE 11.3 km/h 25.7 km/h 94 % 0.25 mm 107 W/m2
11:25 12.5 °C 11.6 °C 1018.5 hPa SSE 12.9 km/h 29 km/h 94 % 0.25 mm 98 W/m2
11:30 12.6 °C 11.7 °C 1018.5 hPa SSE 12.9 km/h 25.7 km/h 94 % 0 mm 107 W/m2
11:35 12.7 °C 11.8 °C 1018.5 hPa South 12.9 km/h 24.1 km/h 94 % 0 mm 123 W/m2
11:40 12.8 °C 11.8 °C 1018.5 hPa South 12.9 km/h 24.1 km/h 94 % 0 mm 97 W/m2
11:45 12.8 °C 11.8 °C 1018.5 hPa SSE 14.5 km/h 29 km/h 94 % 0 mm 98 W/m2
11:50 12.9 °C 11.9 °C 1018.5 hPa South 14.5 km/h 30.6 km/h 94 % 0 mm 123 W/m2
11:55 13 °C 12.1 °C 1018.5 hPa South 12.9 km/h 30.6 km/h 94 % 0 mm 132 W/m2
12:00 13.1 °C 12.2 °C 1018.5 hPa SSE 12.9 km/h 24.1 km/h 94 % 0 mm 130 W/m2
12:05 13.2 °C 12.3 °C 1018.2 hPa SSE 12.9 km/h 24.1 km/h 94 % 0 mm 127 W/m2
12:10 13.3 °C 12.3 °C 1018.2 hPa South 12.9 km/h 22.5 km/h 94 % 0 mm 123 W/m2
12:15 13.4 °C 12.3 °C 1018.2 hPa South 16.1 km/h 32.2 km/h 93 % 0 mm 178 W/m2
12:20 13.6 °C 12.5 °C 1018.2 hPa South 16.1 km/h 32.2 km/h 93 % 0.25 mm 123 W/m2
12:25 13.6 °C 12.5 °C 1018.5 hPa South 14.5 km/h 29 km/h 93 % 0.25 mm 98 W/m2
12:30 13.7 °C 12.6 °C 1018.2 hPa South 14.5 km/h 33.8 km/h 93 % 0.25 mm 132 W/m2
12:35 13.7 °C 12.4 °C 1018.2 hPa South 17.7 km/h 33.8 km/h 92 % 0.25 mm 120 W/m2
12:40 13.8 °C 12.5 °C 1018.2 hPa South 19.3 km/h 32.2 km/h 92 % 0.25 mm 107 W/m2
12:45 13.9 °C 12.6 °C 1018.2 hPa South 19.3 km/h 37 km/h 92 % 0.25 mm 121 W/m2
12:50 14 °C 12.7 °C 1018.2 hPa South 16.1 km/h 37 km/h 92 % 0.25 mm 179 W/m2
12:55 14.1 °C 12.7 °C 1018.2 hPa SSW 14.5 km/h 32.2 km/h 91 % 0.25 mm 199 W/m2
13:00 14.2 °C 12.8 °C 1018.2 hPa SSW 16.1 km/h 35.4 km/h 91 % 0.25 mm 183 W/m2
13:05 14.3 °C 12.8 °C 1018.2 hPa SSW 17.7 km/h 35.4 km/h 91 % 0.25 mm 192 W/m2
13:10 14.5 °C 13.1 °C 1018.2 hPa South 16.1 km/h 33.8 km/h 91 % 0.25 mm 141 W/m2
13:16 14.5 °C 12.9 °C 1018.2 hPa South 14.5 km/h 29 km/h 90 % 0.25 mm 141 W/m2
13:21 14.6 °C 13 °C 1018.2 hPa South 14.5 km/h 29 km/h 90 % 0 mm 149 W/m2
13:26 14.6 °C 13 °C 1018.2 hPa South 14.5 km/h 32.2 km/h 90 % 0 mm 163 W/m2
13:31 14.7 °C 13.1 °C 1018.2 hPa South 14.5 km/h 32.2 km/h 90 % 0 mm 202 W/m2
13:36 14.8 °C 13.2 °C 1018.2 hPa South 12.9 km/h 25.7 km/h 90 % 0 mm 183 W/m2
13:41 14.9 °C 13.3 °C 1018.2 hPa SSW 14.5 km/h 37 km/h 90 % 0 mm 188 W/m2
13:46 14.9 °C 13.3 °C 1017.8 hPa SSW 14.5 km/h 37 km/h 90 % 0 mm 221 W/m2
13:47 15 °C 13.2 °C 1018.2 hPa SSW 16.1 km/h 37 km/h 89 % 0 mm 248 W/m2
13:53 15.1 °C 13.3 °C 1018.2 hPa SSW 17.7 km/h 37 km/h 89 % 0 mm 227 W/m2
13:58 15.1 °C 13.3 °C 1017.8 hPa SSW 19.3 km/h 32.2 km/h 89 % 0 mm 250 W/m2
14:03 15.2 °C 13.2 °C 1017.8 hPa South 19.3 km/h 32.2 km/h 88 % 0 mm 246 W/m2
14:08 15.3 °C 13.3 °C 1017.8 hPa South 20.9 km/h 48.3 km/h 88 % 0 mm 262 W/m2
14:13 15.5 °C 13.5 °C 1018.2 hPa SSW 19.3 km/h 48.3 km/h 88 % 0 mm 246 W/m2
14:18 15.6 °C 13.6 °C 1018.2 hPa SSW 19.3 km/h 37 km/h 88 % 0 mm 225 W/m2
14:23 15.6 °C 13.4 °C 1018.2 hPa SSW 22.5 km/h 38.6 km/h 87 % 0 mm 237 W/m2
14:28 15.6 °C 13.4 °C 1018.2 hPa South 22.5 km/h 38.6 km/h 87 % 0 mm 148 W/m2
14:33 15.6 °C 13.4 °C 1018.2 hPa SSW 19.3 km/h 37 km/h 87 % 0 mm 102 W/m2
14:38 15.5 °C 13.3 °C 1017.8 hPa SSW 19.3 km/h 32.2 km/h 87 % 0 mm 193 W/m2
14:43 15.6 °C 13.4 °C 1018.2 hPa SSW 19.3 km/h 38.6 km/h 87 % 0 mm 151 W/m2
14:48 15.6 °C 13.4 °C 1018.2 hPa SSW 19.3 km/h 38.6 km/h 87 % 0 mm 197 W/m2
14:53 15.7 °C 13.7 °C 1017.8 hPa SSW 16.1 km/h 33.8 km/h 88 % 0 mm 227 W/m2
14:58 15.8 °C 13.7 °C 1017.8 hPa SSW 14.5 km/h 29 km/h 87 % 0 mm 216 W/m2
15:03 15.9 °C 13.7 °C 1017.8 hPa SSW 12.9 km/h 30.6 km/h 87 % 0 mm 218 W/m2
15:08 16 °C 13.8 °C 1017.8 hPa SSW 14.5 km/h 30.6 km/h 87 % 0 mm 255 W/m2
15:13 16.1 °C 13.8 °C 1017.8 hPa SSW 17.7 km/h 37 km/h 86 % 0 mm 220 W/m2
15:18 16.1 °C 13.9 °C 1017.8 hPa SSW 17.7 km/h 37 km/h 87 % 0 mm 171 W/m2
15:23 16.1 °C 13.9 °C 1017.8 hPa SSW 14.5 km/h 30.6 km/h 87 % 0 mm 176 W/m2
15:28 16.1 °C 13.9 °C 1017.8 hPa SSW 14.5 km/h 29 km/h 87 % 0 mm 167 W/m2
15:33 16 °C 14 °C 1017.8 hPa SSW 16.1 km/h 32.2 km/h 88 % 0 mm 172 W/m2
15:38 15.9 °C 13.9 °C 1017.5 hPa SSW 17.7 km/h 33.8 km/h 88 % 0 mm 176 W/m2
15:43 15.9 °C 13.9 °C 1017.5 hPa SSW 17.7 km/h 38.6 km/h 88 % 0 mm 146 W/m2
15:48 15.9 °C 13.9 °C 1017.5 hPa SSW 19.3 km/h 41.8 km/h 88 % 0 mm 151 W/m2
15:53 15.9 °C 13.9 °C 1017.5 hPa SSW 19.3 km/h 41.8 km/h 88 % 0 mm 148 W/m2
15:58 15.8 °C 13.8 °C 1017.5 hPa SSW 17.7 km/h 37 km/h 88 % 0 mm 132 W/m2
16:03 15.8 °C 13.8 °C 1017.5 hPa SSW 16.1 km/h 37 km/h 88 % 0 mm 123 W/m2
16:08 15.9 °C 14.1 °C 1017.5 hPa SSW 16.1 km/h 37 km/h 89 % 0 mm 142 W/m2
16:13 15.9 °C 14.1 °C 1017.5 hPa SSW 17.7 km/h 30.6 km/h 89 % 0 mm 121 W/m2
16:18 15.8 °C 14 °C 1017.5 hPa SSW 17.7 km/h 30.6 km/h 89 % 0 mm 135 W/m2
16:23 15.8 °C 14 °C 1017.5 hPa SSW 16.1 km/h 25.7 km/h 89 % 0 mm 135 W/m2
16:28 15.8 °C 14 °C 1017.5 hPa SSW 16.1 km/h 30.6 km/h 89 % 0 mm 120 W/m2
16:34 15.8 °C 14 °C 1017.5 hPa SSW 16.1 km/h 32.2 km/h 89 % 0 mm 116 W/m2
16:39 15.9 °C 14.3 °C 1017.5 hPa SSW 12.9 km/h 32.2 km/h 90 % 0 mm 116 W/m2
16:44 15.9 °C 14.1 °C 1017.2 hPa SSW 14.5 km/h 32.2 km/h 89 % 0 mm 98 W/m2
16:49 15.9 °C 14.3 °C 1017.2 hPa SSW 17.7 km/h 33.8 km/h 90 % 0 mm 93 W/m2
16:54 15.9 °C 14.3 °C 1017.2 hPa SSW 19.3 km/h 37 km/h 90 % 0 mm 88 W/m2
16:59 15.9 °C 14.3 °C 1017.2 hPa SSW 17.7 km/h 37 km/h 90 % 0 mm 91 W/m2
17:04 15.9 °C 14.3 °C 1017.2 hPa SSW 17.7 km/h 32.2 km/h 90 % 0 mm 88 W/m2
17:09 15.9 °C 14.3 °C 1017.2 hPa SSW 19.3 km/h 37 km/h 90 % 0 mm 86 W/m2
17:14 15.9 °C 14.4 °C 1017.2 hPa SSW 19.3 km/h 37 km/h 91 % 0 mm 81 W/m2
17:19 15.9 °C 14.4 °C 1017.2 hPa SSW 16.1 km/h 33.8 km/h 91 % 0 mm 77 W/m2
17:24 15.9 °C 14.4 °C 1017.2 hPa SSW 16.1 km/h 30.6 km/h 91 % 0 mm 98 W/m2
17:29 15.9 °C 14.4 °C 1017.2 hPa SSW 17.7 km/h 33.8 km/h 91 % 0 mm 90 W/m2
17:34 15.9 °C 14.4 °C 1017.2 hPa SSW 19.3 km/h 33.8 km/h 91 % 0 mm 84 W/m2
17:39 15.9 °C 14.4 °C 1017.2 hPa SSW 17.7 km/h 33.8 km/h 91 % 0.25 mm 72 W/m2
17:44 15.9 °C 14.6 °C 1017.2 hPa SSW 16.1 km/h 29 km/h 92 % 0.51 mm 63 W/m2
17:49 15.8 °C 14.5 °C 1017.2 hPa SSW 16.1 km/h 30.6 km/h 92 % 0.51 mm 58 W/m2
17:54 15.8 °C 14.5 °C 1017.5 hPa SSW 16.1 km/h 30.6 km/h 92 % 0.51 mm 51 W/m2
17:59 15.7 °C 14.4 °C 1017.2 hPa SSW 17.7 km/h 35.4 km/h 92 % 0.51 mm 49 W/m2
18:04 15.7 °C 14.4 °C 1017.2 hPa SSW 17.7 km/h 35.4 km/h 92 % 0.51 mm 47 W/m2
18:09 15.7 °C 14.4 °C 1017.2 hPa SSW 16.1 km/h 25.7 km/h 92 % 0.51 mm 47 W/m2
18:14 15.6 °C 14.4 °C 1017.2 hPa SSW 16.1 km/h 32.2 km/h 93 % 0.51 mm 40 W/m2
18:19 15.6 °C 14.4 °C 1017.2 hPa SSW 17.7 km/h 32.2 km/h 93 % 0.51 mm 39 W/m2
18:24 15.6 °C 14.4 °C 1017.2 hPa SSW 16.1 km/h 33.8 km/h 93 % 0.51 mm 35 W/m2
18:30 15.6 °C 14.4 °C 1017.2 hPa SSW 14.5 km/h 33.8 km/h 93 % 0.51 mm 32 W/m2
18:35 15.6 °C 14.4 °C 1017.2 hPa SSW 16.1 km/h 29 km/h 93 % 0.51 mm 35 W/m2
18:40 15.6 °C 14.4 °C 1017.2 hPa SSW 14.5 km/h 25.7 km/h 93 % 0.51 mm 33 W/m2
18:45 15.6 °C 14.4 °C 1017.2 hPa SSW 12.9 km/h 24.1 km/h 93 % 0.25 mm 33 W/m2
18:50 15.6 °C 14.4 °C 1017.2 hPa SSW 11.3 km/h 24.1 km/h 93 % 0.25 mm 33 W/m2
18:55 15.6 °C 14.4 °C 1017.5 hPa South 11.3 km/h 24.1 km/h 93 % 0.25 mm 32 W/m2
19:00 15.6 °C 14.4 °C 1017.5 hPa SSW 9.7 km/h 24.1 km/h 93 % 0.25 mm 28 W/m2
19:05 15.6 °C 14.4 °C 1017.5 hPa SSW 11.3 km/h 24.1 km/h 93 % 0.25 mm 26 W/m2
19:10 15.6 °C 14.4 °C 1017.5 hPa South 9.7 km/h 22.5 km/h 93 % 0.25 mm 26 W/m2
19:15 15.6 °C 14.4 °C 1017.5 hPa SSW 11.3 km/h 20.9 km/h 93 % 0.25 mm 30 W/m2
19:20 15.6 °C 14.4 °C 1017.5 hPa South 11.3 km/h 24.1 km/h 93 % 0.25 mm 30 W/m2
19:25 15.6 °C 14.4 °C 1017.5 hPa South 11.3 km/h 24.1 km/h 93 % 0 mm 30 W/m2
19:30 15.6 °C 14.3 °C 1017.5 hPa South 12.9 km/h 25.7 km/h 92 % 0 mm 28 W/m2
19:35 15.7 °C 14.4 °C 1017.5 hPa South 12.9 km/h 33.8 km/h 92 % 0 mm 33 W/m2
19:40 15.7 °C 14.4 °C 1017.5 hPa South 12.9 km/h 33.8 km/h 92 % 0 mm 35 W/m2
19:45 15.7 °C 14.4 °C 1017.5 hPa South 12.9 km/h 22.5 km/h 92 % 0 mm 35 W/m2
19:50 15.7 °C 14.4 °C 1017.5 hPa South 11.3 km/h 20.9 km/h 92 % 0 mm 32 W/m2
19:55 15.7 °C 14.4 °C 1017.5 hPa South 11.3 km/h 22.5 km/h 92 % 0 mm 32 W/m2
20:00 15.7 °C 14.4 °C 1017.5 hPa SSW 11.3 km/h 22.5 km/h 92 % 0 mm 30 W/m2
20:05 15.7 °C 14.4 °C 1017.5 hPa SSW 11.3 km/h 24.1 km/h 92 % 0 mm 28 W/m2
20:10 15.7 °C 14.4 °C 1017.5 hPa SSW 11.3 km/h 24.1 km/h 92 % 0 mm 25 W/m2
20:15 15.7 °C 14.4 °C 1017.5 hPa SSW 11.3 km/h 30.6 km/h 92 % 0 mm 25 W/m2
20:20 15.8 °C 14.5 °C 1017.5 hPa SSW 16.1 km/h 32.2 km/h 92 % 0 mm 21 W/m2
20:25 15.8 °C 14.5 °C 1017.5 hPa SSW 16.1 km/h 38.6 km/h 92 % 0 mm 19 W/m2
20:30 15.7 °C 14.4 °C 1017.5 hPa SSW 14.5 km/h 38.6 km/h 92 % 0 mm 16 W/m2
20:36 15.7 °C 14.4 °C 1017.5 hPa SSW 12.9 km/h 30.6 km/h 92 % 0 mm 12 W/m2
20:41 15.7 °C 14.4 °C 1017.5 hPa SSW 11.3 km/h 30.6 km/h 92 % 0 mm 9 W/m2
20:46 15.7 °C 14.4 °C 1017.5 hPa SSW 11.3 km/h 25.7 km/h 92 % 0 mm 7 W/m2
20:51 15.7 °C 14.4 °C 1017.5 hPa SSW 11.3 km/h 25.7 km/h 92 % 0 mm 5 W/m2
20:56 15.7 °C 14.4 °C 1017.5 hPa SSW 12.9 km/h 25.7 km/h 92 % 0 mm 0 W/m2
21:01 15.7 °C 14.4 °C 1017.8 hPa SSW 12.9 km/h 22.5 km/h 92 % 0 mm 0 W/m2
21:06 15.7 °C 14.4 °C 1017.8 hPa SSW 11.3 km/h 22.5 km/h 92 % 0 mm 0 W/m2
21:11 15.7 °C 14.4 °C 1017.8 hPa SSW 11.3 km/h 20.9 km/h 92 % 0 mm 0 W/m2
21:16 15.7 °C 14.4 °C 1017.8 hPa SSW 9.7 km/h 20.9 km/h 92 % 0 mm 0 W/m2
21:21 15.6 °C 14.3 °C 1017.8 hPa SSW 9.7 km/h 22.5 km/h 92 % 0 mm 0 W/m2
21:26 15.6 °C 14.3 °C 1017.8 hPa SSW 11.3 km/h 22.5 km/h 92 % 0.25 mm 0 W/m2
21:31 15.6 °C 14.3 °C 1017.8 hPa SSW 12.9 km/h 25.7 km/h 92 % 0.25 mm 0 W/m2
21:36 15.6 °C 14.3 °C 1017.8 hPa SSW 12.9 km/h 32.2 km/h 92 % 0.25 mm 0 W/m2
21:41 15.6 °C 14.3 °C 1017.8 hPa SSW 14.5 km/h 32.2 km/h 92 % 0.25 mm 0 W/m2
21:46 15.6 °C 14.3 °C 1017.5 hPa SSW 14.5 km/h 30.6 km/h 92 % 0.25 mm 0 W/m2
21:51 15.6 °C 14.3 °C 1017.8 hPa SSW 14.5 km/h 25.7 km/h 92 % 0.25 mm 0 W/m2
21:56 15.6 °C 14.3 °C 1017.8 hPa SSW 14.5 km/h 30.6 km/h 92 % 0.25 mm 0 W/m2
22:01 15.6 °C 14.3 °C 1017.8 hPa SSW 14.5 km/h 30.6 km/h 92 % 0.25 mm 0 W/m2
22:06 15.6 °C 14.1 °C 1017.8 hPa SSW 12.9 km/h 25.7 km/h 91 % 0.25 mm 0 W/m2
22:09 15.6 °C 14.1 °C 1017.8 hPa SSW 12.9 km/h 25.7 km/h 91 % 0.25 mm 0 W/m2
22:14 15.6 °C 14.3 °C 1017.8 hPa SSW 11.3 km/h 24.1 km/h 92 % 0.25 mm 0 W/m2
22:19 15.6 °C 14.1 °C 1017.8 hPa SSW 11.3 km/h 24.1 km/h 91 % 0.25 mm 0 W/m2
22:24 15.6 °C 14.1 °C 1017.8 hPa SSW 11.3 km/h 22.5 km/h 91 % 0 mm 0 W/m2
22:29 15.6 °C 14.1 °C 1017.8 hPa SSW 12.9 km/h 33.8 km/h 91 % 0 mm 0 W/m2
22:34 15.6 °C 14.1 °C 1017.8 hPa SSW 14.5 km/h 37 km/h 91 % 0 mm 0 W/m2
22:39 15.6 °C 14.1 °C 1017.8 hPa SSW 14.5 km/h 37 km/h 91 % 0 mm 0 W/m2
22:44 15.6 °C 14.1 °C 1017.8 hPa SSW 14.5 km/h 30.6 km/h 91 % 0 mm 0 W/m2
22:49 15.6 °C 14.1 °C 1017.8 hPa SSW 14.5 km/h 30.6 km/h 91 % 0 mm 0 W/m2
22:54 15.6 °C 14.1 °C 1017.8 hPa SSW 12.9 km/h 40.2 km/h 91 % 0 mm 0 W/m2
22:59 15.7 °C 14.2 °C 1017.8 hPa SSW 14.5 km/h 40.2 km/h 91 % 0 mm 0 W/m2
23:04 15.7 °C 14.1 °C 1017.8 hPa SSW 14.5 km/h 38.6 km/h 90 % 0 mm 0 W/m2
23:09 15.8 °C 14.2 °C 1017.8 hPa SSW 12.9 km/h 38.6 km/h 90 % 0 mm 0 W/m2
23:14 15.8 °C 14.2 °C 1017.8 hPa SSW 11.3 km/h 29 km/h 90 % 0 mm 0 W/m2
23:19 15.7 °C 14.1 °C 1017.8 hPa SSW 11.3 km/h 29 km/h 90 % 0 mm 0 W/m2
23:24 15.8 °C 14.2 °C 1017.8 hPa SSW 11.3 km/h 25.7 km/h 90 % 0 mm 0 W/m2
23:29 15.8 °C 14.2 °C 1017.8 hPa SSW 9.7 km/h 25.7 km/h 90 % 0 mm 0 W/m2
23:34 15.8 °C 14.2 °C 1017.8 hPa SSW 11.3 km/h 24.1 km/h 90 % 0 mm 0 W/m2
23:39 15.8 °C 14.2 °C 1017.8 hPa SSW 14.5 km/h 29 km/h 90 % 0 mm 0 W/m2
23:44 15.8 °C 14 °C 1017.8 hPa SW 16.1 km/h 35.4 km/h 89 % 0 mm 0 W/m2
23:49 15.8 °C 14 °C 1017.8 hPa SW 16.1 km/h 35.4 km/h 89 % 0 mm 0 W/m2
23:54 15.8 °C 14 °C 1017.8 hPa SW 14.5 km/h 32.2 km/h 89 % 0 mm 0 W/m2
23:59 15.9 °C 14.1 °C 1017.8 hPa SW 16.1 km/h 32.2 km/h 89 % 0 mm 0 W/m2
Delerius-Weather
Compliments of Weather Underground - 2.25 mb

Data updates at regular intervals.